Tracking 32139 objects as of 15-Nov-2025
HD Live streaming from Space Station
objects crossing your sky now

STARLINK-34648

Track STARLINK-34648 now!
10-day predictions
STARLINK-34648 is classified as:


NORAD ID: 65091
Int'l Code: 2025-167P
Perigee: 481.4 km
Apogee: 483.0 km
Inclination: 53.2 °
Period: 94.1 minutes
Semi major axis: 6853 km
RCS: Unknown
Launch date: August 4, 2025
Source: United States (US)
Launch site: AIR FORCE EASTERN TEST RANGE (AFETR)
Your satellite tracking list
Your tracking list is empty




NASA's NSSDC Master Catalog

Two Line Element Set (TLE):
1 65091U 25167P   25319.69372014  .00057497  00000-0  19354-2 0  9990
2 65091  53.1580 196.3674 0001165  98.3477 261.7656 15.30251533 16022
Source of the keplerian elements: AFSPC